Date String (YYYY-MM-DD hh:mm:ss) UTC,Instrument flags,Ambient pressure (hPa),Sample flow (lpm),Bypass flow (lpm),Sample temperature (°C),Ambient temperature (°C),ASC tube jacket temperature (°C),LED temperature (°C),Box temperature (°C),Sample RH (%),Span deviation,Mass concentration (μg/m³),Mass concentration (μg/m³),Mass concentration (μg/m³)
DateTimeUTC,F1_M11,P_M11,Q1_M11,Q2_M11,T1_M11,T2_M11,T3_M11,T4_M11,T5_M11,U1_M11,ZSPAN_M11,X2_M11,X0_M11,X1_M11
2023-03-01 14:00:00,,0815.8,5.01,0.00,22.3,20.6,00.0,31.1,24.0,04.8,0000.0,0001.85,0008.31,0000.96
2023-03-01 14:01:00,,0815.8,5.00,0.00,22.3,20.5,00.0,31.1,23.9,04.8,0000.0,0001.85,0007.95,0000.96
2023-03-01 14:02:00,,0815.8,4.99,0.00,22.3,20.4,00.0,31.1,23.9,05.0,0000.0,0001.85,0006.91,0000.96
2023-03-01 14:03:00,,0815.8,4.99,0.00,22.2,20.5,00.0,31.1,23.9,05.0,0000.0,0001.85,0005.51,0000.96
2023-03-01 14:04:00,,0815.8,5.01,0.00,22.3,21.5,00.0,31.0,24.1,05.0,0000.0,0001.83,0006.34,0000.94
2023-03-01 14:05:00,,0815.8,4.99,0.00,22.4,22.7,00.0,31.0,24.4,05.0,0000.0,0001.82,0006.00,0000.94
2023-03-01 14:06:00,,0815.8,4.99,0.00,22.5,22.9,00.0,31.1,24.5,04.9,0000.0,0001.80,0006.79,0000.94
2023-03-01 14:07:00,,0815.8,4.98,0.00,22.5,22.4,00.0,31.1,24.4,04.9,0000.0,0001.84,0007.27,0000.95
2023-03-01 14:08:00,,0815.8,4.99,0.00,22.5,21.9,00.0,31.2,24.3,04.9,0000.0,0001.84,0007.47,0000.97
2023-03-01 14:09:00,,0815.8,5.00,0.00,22.5,21.5,00.0,31.2,24.2,05.0,0000.0,0001.79,0007.12,0000.99
2023-03-01 14:10:00,,0815.8,4.99,0.00,22.5,21.2,00.0,31.2,24.1,05.0,0000.0,0001.82,0006.97,0001.02
2023-03-01 14:11:00,,0815.8,5.00,0.00,22.4,21.0,00.0,31.2,24.1,04.9,0000.0,0001.82,0006.74,0001.05
2023-03-01 14:12:00,,0815.8,5.00,0.00,22.4,20.8,00.0,31.1,24.0,05.0,0000.0,0001.83,0006.81,0001.07
2023-03-01 14:13:00,,0815.8,4.99,0.00,22.3,20.6,00.0,31.1,23.9,05.2,0000.0,0001.87,0006.84,0001.10
2023-03-01 14:14:00,,0815.8,5.01,0.00,22.3,20.6,00.0,31.1,23.9,05.1,0000.0,0001.87,0006.78,0001.13
2023-03-01 14:15:00,,0815.8,5.00,0.00,22.3,20.4,00.0,31.1,23.9,05.5,0000.0,0001.82,0005.69,0001.16
2023-03-01 14:16:00,,0815.9,5.00,0.00,22.2,20.4,00.0,31.1,23.8,06.0,0000.0,0001.79,0005.19,0001.18
2023-03-01 14:17:00,,0815.9,5.02,0.00,22.3,21.2,00.0,31.0,24.0,05.9,0000.0,0001.82,0004.78,0001.18
2023-03-01 14:18:00,,0815.9,5.01,0.00,22.4,22.4,00.0,31.0,24.3,05.6,0000.0,0001.80,0004.63,0001.19
2023-03-01 14:19:00,,0816.0,4.98,0.00,22.5,23.2,00.0,31.1,24.5,05.4,0000.0,0001.76,0004.02,0001.18
2023-03-01 14:20:00,,0816.0,5.01,0.00,22.5,22.7,00.0,31.1,24.4,05.5,0000.0,0001.69,0003.84,0001.16
2023-03-01 14:21:00,,0816.0,5.01,0.00,22.5,22.2,00.0,31.2,24.3,05.3,0000.0,0001.64,0003.76,0001.14
2023-03-01 14:22:00,,0816.0,4.99,0.00,22.5,21.8,00.0,31.2,24.3,05.3,0000.0,0001.60,0003.67,0001.11
2023-03-01 14:23:00,,0816.0,5.00,0.00,22.5,21.5,00.0,31.2,24.2,05.5,0000.0,0001.55,0003.43,0001.10
2023-03-01 14:24:00,,0816.0,4.99,0.00,22.5,21.2,00.0,31.2,24.1,05.5,0000.0,0001.52,0003.39,0001.07
2023-03-01 14:25:00,,0816.0,5.00,0.00,22.4,21.1,00.0,31.2,24.1,05.3,0000.0,0001.56,0003.69,0001.05
2023-03-01 14:26:00,,0816.0,5.00,0.00,22.4,20.9,00.0,31.2,24.1,05.3,0000.0,0001.62,0003.96,0001.02
2023-03-01 14:27:00,,0816.0,4.99,0.00,22.4,20.8,00.0,31.2,24.0,05.5,0000.0,0001.66,0003.99,0001.02
2023-03-01 14:28:00,,0816.1,5.01,0.00,22.4,20.7,00.0,31.1,24.0,05.4,0000.0,0001.61,0003.62,0001.01
2023-03-01 14:29:00,,0816.1,5.00,0.00,22.3,20.6,00.0,31.1,24.0,05.9,0000.0,0001.61,0003.30,0001.00
2023-03-01 14:30:00,,0816.2,5.01,0.00,22.3,20.6,00.0,31.1,24.0,06.2,0000.0,0001.62,0003.37,0000.98
2023-03-01 14:31:00,,0816.2,4.99,0.00,22.3,20.6,00.0,31.1,23.9,06.2,0000.0,0001.66,0003.44,0000.98
2023-03-01 14:32:00,,0816.3,4.98,0.00,22.3,21.5,00.0,31.1,24.1,06.5,0000.0,0001.70,0003.54,0000.98
2023-03-01 14:33:00,,0816.3,5.00,0.00,22.5,22.8,00.0,31.1,24.4,06.4,0000.0,0001.76,0003.67,0001.00
2023-03-01 14:34:00,,0816.2,5.01,0.00,22.6,23.5,00.0,31.1,24.7,05.8,0000.0,0001.78,0003.78,0001.01
2023-03-01 14:35:00,,0816.2,5.01,0.00,22.6,23.0,00.0,31.2,24.6,06.2,0000.0,0001.83,0004.07,0001.03
2023-03-01 14:36:00,,0816.3,5.01,0.00,22.6,22.5,00.0,31.2,24.5,06.2,0000.0,0001.82,0003.90,0001.06
2023-03-01 14:37:00,,0816.3,4.98,0.00,22.6,22.1,00.0,31.2,24.4,06.2,0000.0,0001.78,0003.64,0001.08
2023-03-01 14:38:00,,0816.3,5.00,0.00,22.6,21.7,00.0,31.2,24.3,06.3,0000.0,0001.87,0004.45,0001.09
2023-03-01 14:39:00,,0816.3,5.02,0.00,22.6,21.3,00.0,31.3,24.2,06.4,0000.0,0002.01,0005.47,0001.12
2023-03-01 14:40:00,,0816.3,4.99,0.00,22.5,21.1,00.0,31.3,24.2,06.6,0000.0,0002.13,0006.94,0001.15
2023-03-01 14:41:00,,0816.3,5.02,0.00,22.5,21.0,00.0,31.3,24.2,06.8,0000.0,0002.31,0009.70,0001.20
2023-03-01 14:42:00,,0816.3,5.02,0.00,22.5,20.9,00.0,31.2,24.1,07.0,0000.0,0002.50,0011.12,0001.23
2023-03-01 14:43:00,,0816.3,5.02,0.00,22.4,20.8,00.0,31.2,24.1,07.0,0000.0,0002.71,0012.48,0001.26
2023-03-01 14:44:00,,0816.2,5.01,0.00,22.4,20.8,00.0,31.2,24.1,07.0,0000.0,0003.00,0013.68,0001.30
2023-03-01 14:45:00,,0816.3,4.98,0.00,22.5,21.9,00.0,31.2,24.3,06.9,0000.0,0003.21,0016.86,0001.37
2023-03-01 14:46:00,,0816.3,5.00,0.00,22.6,23.0,00.0,31.2,24.6,06.8,0000.0,0003.37,0017.96,0001.43
2023-03-01 14:47:00,,0816.3,5.01,0.00,22.7,23.4,00.0,31.2,24.7,06.7,0000.0,0003.53,0018.41,0001.49
2023-03-01 14:48:00,,0816.3,5.01,0.00,22.7,22.9,00.0,31.3,24.6,06.7,0000.0,0003.63,0018.85,0001.55
2023-03-01 14:49:00,,0816.3,4.99,0.00,22.7,22.4,00.0,31.3,24.5,07.0,0000.0,0003.73,0019.90,0001.62
2023-03-01 14:50:00,,0816.3,5.00,0.00,22.7,22.0,00.0,31.3,24.4,07.1,0000.0,0003.85,0021.25,0001.67
2023-03-01 14:51:00,,0816.3,4.98,0.00,22.7,21.6,00.0,31.3,24.4,07.2,0000.0,0003.95,0022.50,0001.73
2023-03-01 14:52:00,,0816.3,5.00,0.00,22.6,21.4,00.0,31.3,24.3,07.0,0000.0,0003.98,0020.95,0001.76
2023-03-01 14:53:00,,0816.3,5.00,0.00,22.6,21.2,00.0,31.3,24.3,07.0,0000.0,0004.05,0020.72,0001.81
2023-03-01 14:54:00,,0816.3,5.01,0.00,22.6,21.1,00.0,31.3,24.2,06.9,0000.0,0004.02,0021.34,0001.82
2023-03-01 14:55:00,,0816.4,5.00,0.00,22.5,20.9,00.0,31.3,24.2,06.8,0000.0,0003.94,0021.16,0001.81
2023-03-01 14:56:00,,0816.4,4.97,0.00,22.5,20.9,00.0,31.3,24.2,06.7,0000.0,0003.85,0018.33,0001.78
2023-03-01 14:57:00,,0816.5,4.99,0.00,22.5,21.6,00.0,31.3,24.3,06.8,0000.0,0003.71,0016.97,0001.74
2023-03-01 14:58:00,,0816.4,4.99,0.00,22.7,22.8,00.0,31.3,24.6,06.8,0000.0,0003.59,0016.90,0001.69
2023-03-01 14:59:00,,0816.5,5.01,0.00,22.8,23.6,00.0,31.3,24.8,06.9,0000.0,0003.53,0017.95,0001.66
